Total_Precipitation_Accumulation
2.89 3.32 3.09 2.70 2.69 2.78 3.01 3.37 3.65 3.20 2.81 2.71 2.71 2.74 2.85 2.92 3.10 2.80 2.54 2.47 2.19 1.97 1.89 1.88 1.87 1.78 1.72 1.72 1.80 1.97 2.16 2.33 2.58 2.93 3.31 3.72 4.17 4.68
2.91 3.02 2.95 2.70 2.74 2.84 3.03 3.29 3.60 3.53 3.01 2.68 2.88 2.92 2.81 2.59 2.89 2.76 2.49 2.41 2.12 1.91 1.73 1.70 1.74 1.79 1.81 1.79 1.75 1.78 1.82 1.89 1.96 2.11 2.32 2.47 2.72 3.17
2.85 2.82 2.79 3.00 3.05 2.89 3.07 3.22 3.47 3.73 3.43 2.90 2.98 3.00 2.93 2.69 2.64 2.55 2.41 2.37 2.16 2.11 1.88 1.77 1.68 1.66 1.66 1.69 1.77 1.82 1.79 1.75 1.73 1.77 1.90 2.05 2.13 2.26
2.89 3.10 3.02 3.21 3.23 3.17 3.37 3.38 3.47 3.75 3.65 3.28 3.12 3.17 3.04 2.88 2.79 2.54 2.17 2.06 2.05 2.23 2.06 1.90 1.78 1.72 1.65 1.61 1.59 1.56 1.55 1.58 1.58 1.55 1.58 1.64 1.75 1.94
2.67 2.97 3.27 3.74 3.59 3.42 3.31 3.23 3.26 3.34 3.59 3.31 3.03 3.23 3.06 2.93 2.88 2.51 2.21 2.16 1.82 1.90 1.94 1.80 1.66 1.53 1.46 1.44 1.43 1.39 1.35 1.36 1.40 1.45 1.50 1.55 1.59 1.67
2.57 2.70 2.88 3.19 3.35 3.48 3.26 3.16 3.25 3.34 3.47 3.36 3.25 3.45 3.49 3.32 3.10 2.71 2.50 2.35 2.07 1.75 1.79 1.69 1.59 1.51 1.43 1.37 1.34 1.32 1.32 1.34 1.40 1.45 1.51 1.60 1.67 1.72
2.69 2.61 2.45 2.57 2.76 2.96 2.81 3.11 3.32 3.27 3.32 3.37 3.46 3.83 3.80 3.59 3.05 2.78 2.66 2.54 2.25 1.90 1.86 1.63 1.55 1.42 1.39 1.43 1.38 1.33 1.30 1.31 1.33 1.36 1.42 1.49 1.57 1.66
2.85 2.77 2.56 2.38 2.37 2.52 2.59 2.80 3.05 3.07 3.12 3.29 3.36 3.53 3.58 3.52 3.30 3.02 2.77 2.61 2.30 2.01 2.03 1.87 1.69 1.59 1.46 1.38 1.48 1.48 1.44 1.41 1.36 1.33 1.31 1.34 1.39 1.44
3.05 3.14 2.67 2.25 2.49 2.44 2.52 2.52 2.40 2.52 2.73 2.94 3.08 3.10 3.43 3.57 3.63 3.19 3.00 2.78 2.39 2.21 2.29 2.09 1.96 1.76 1.54 1.47 1.59 1.44 1.42 1.42 1.37 1.31 1.26 1.22 1.23 1.28
2.65 2.70 2.68 2.49 2.43 2.49 2.45 2.28 2.05 2.04 2.20 2.25 2.32 2.59 2.96 3.47 3.81 3.55 3.43 3.22 2.83 2.46 2.30 2.14 1.97 1.83 1.62 1.54 1.61 1.48 1.38 1.36 1.33 1.28 1.23 1.21 1.20 1.22
2.28 2.28 2.30 2.14 2.23 2.30 2.24 2.12 2.00 1.89 1.93 2.01 1.96 2.08 2.40 2.80 3.32 3.56 3.31 2.99 2.64 2.30 2.19 2.07 1.85 1.94 1.88 1.73 1.63 1.68 1.51 1.40 1.34 1.31 1.28 1.27 1.26 1.31
2.40 2.37 2.32 2.14 2.14 2.08 1.97 1.97 1.79 1.68 1.82 1.80 1.72 1.73 1.85 2.19 2.72 2.90 3.02 2.88 2.54 2.26 1.96 2.02 1.92 2.06 2.08 1.78 1.61 1.60 1.55 1.54 1.47 1.38 1.35 1.37 1.44 1.29
2.46 2.50 2.43 2.33 2.03 1.91 1.79 1.71 1.69 1.85 1.94 1.91 1.84 1.84 2.00 2.19 2.35 2.63 2.88 2.95 2.71 2.29 2.05 2.15 2.02 2.10 2.18 1.97 1.77 1.68 1.59 1.55 1.52 1.49 1.46 1.43 1.43 1.32
2.36 2.48 2.50 2.42 2.14 2.01 1.86 1.71 1.79 1.80 1.78 1.88 1.86 1.80 1.85 1.98 2.18 2.49 2.78 2.86 2.74 2.50 2.42 2.45 2.30 2.25 2.30 2.15 1.90 1.81 1.77 1.69 1.63 1.54 1.48 1.64 1.54 1.48
2.10 2.48 2.58 2.43 2.20 1.93 1.84 1.85 1.80 1.68 1.68 1.69 1.60 1.56 1.64 1.81 2.02 2.31 2.65 2.87 2.80 2.56 2.44 2.39 2.36 2.46 2.54 2.31 2.03 1.89 1.91 1.85 1.70 1.64 1.56 1.51 1.43 1.42
1.92 2.13 2.23 2.18 1.97 1.80 1.73 1.66 1.59 1.61 1.59 1.55 1.54 1.62 1.74 1.81 1.86 2.01 2.38 2.72 2.83 2.60 2.43 2.39 2.41 2.56 2.54 2.40 2.30 2.05 1.91 1.88 1.77 1.72 1.70 1.61 1.53 1.45
2.06 2.00 2.04 2.12 2.09 2.00 1.99 1.93 1.88 1.81 1.68 1.61 1.69 1.73 1.84 1.95 2.00 2.12 2.37 2.60 2.58 2.35 2.28 2.40 2.53 2.61 2.56 2.55 2.43 2.09 1.95 1.87 1.88 1.96 1.98 1.82 1.63 1.54
1.79 1.78 1.93 2.10 2.22 2.22 2.25 2.22 2.14 2.03 1.93 1.94 1.98 1.96 1.95 2.02 2.09 2.14 2.33 2.52 2.53 2.38 2.27 2.25 2.50 2.74 2.73 2.50 2.25 2.10 1.98 1.86 1.89 2.06 2.11 2.00 1.77 1.59
1.55 1.67 1.83 1.95 2.12 2.28 2.33 2.28 2.19 2.19 2.25 2.24 2.21 2.19 2.18 2.22 2.29 2.27 2.27 2.41 2.50 2.45 2.44 2.47 2.55 2.66 2.61 2.24 1.96 1.90 1.98 1.98 2.05 2.11 2.08 1.93 1.73 1.64
1.62 1.81 1.97 2.10 2.22 2.40 2.46 2.42 2.39 2.36 2.37 2.34 2.35 2.34 2.33 2.33 2.35 2.32 2.26 2.24 2.36 2.46 2.49 2.50 2.48 2.41 2.36 2.26 2.13 2.03 1.98 2.05 2.09 2.05 2.03 2.02 1.90 1.87
1.90 1.97 2.03 2.13 2.27 2.43 2.57 2.62 2.64 2.58 2.53 2.48 2.43 2.45 2.49 2.50 2.38 2.32 2.37 2.41 2.36 2.39 2.33 2.17 2.21 2.58 2.73 2.76 2.53 2.15 2.03 2.15 2.19 2.17 2.20 2.32 2.17 2.01
1.91 1.99 2.03 2.06 2.20 2.33 2.42 2.48 2.51 2.48 2.48 2.52 2.47 2.45 2.48 2.50 2.43 2.43 2.52 2.52 2.37 2.27 2.20 2.20 2.40 2.69 2.83 2.82 2.49 2.25 2.20 2.25 2.32 2.34 2.29 2.23 2.12 1.95
1.83 1.84 1.88 1.94 2.05 2.19 2.25 2.32 2.38 2.37 2.34 2.38 2.47 2.48 2.41 2.43 2.41 2.44 2.48 2.54 2.46 2.38 2.42 2.48 2.56 2.61 2.60 2.61 2.58 2.42 2.30 2.36 2.35 2.22 1.99 1.89 1.79 1.69